Time,TemperatureF,DewpointF,PressureIn,WindDirection,WindDirectionDegrees,WindSpeedMPH,WindSpeedGustMPH,Humidity,HourlyPrecipIn,Conditions,Clouds,dailyrainin,SoftwareType,DateUTC
2013-08-18 00:02:00,62.9,62.0,30.21,NNW,344,0.0,0.0,95,0.00,,,0.00,weatherlink.com 1.10,2013-08-18 04:02:00,
2013-08-18 00:17:00,62.8,61.0,30.22,NNW,344,0.0,0.0,95,0.00,,,0.00,weatherlink.com 1.10,2013-08-18 04:17:00,
2013-08-18 00:33:00,62.8,61.0,30.21,NNW,344,0.0,0.0,94,0.00,,,0.00,weatherlink.com 1.10,2013-08-18 04:33:00,
2013-08-18 00:48:00,62.6,61.0,30.22,NNW,344,0.0,0.0,95,0.00,,,0.00,weatherlink.com 1.10,2013-08-18 04:48:00,
2013-08-18 01:03:00,62.8,61.0,30.21,NNW,344,0.0,0.0,95,0.00,,,0.00,weatherlink.com 1.10,2013-08-18 05:03:00,
2013-08-18 01:18:00,62.6,61.0,30.21,NNW,344,0.0,0.0,95,0.00,,,0.00,weatherlink.com 1.10,2013-08-18 05:18:00,
2013-08-18 01:33:00,62.4,61.0,30.21,NNW,344,0.0,0.0,96,0.00,,,0.00,weatherlink.com 1.10,2013-08-18 05:33:00,
2013-08-18 01:48:00,62.2,61.0,30.21,NNW,344,0.0,0.0,96,0.00,,,0.00,weatherlink.com 1.10,2013-08-18 05:48:00,
2013-08-18 02:03:00,62.1,61.0,30.21,NNW,344,0.0,0.0,96,0.00,,,0.00,weatherlink.com 1.10,2013-08-18 06:03:00,
2013-08-18 02:18:00,62.0,61.0,30.20,NNW,344,0.0,0.0,97,0.00,,,0.00,weatherlink.com 1.10,2013-08-18 06:18:00,
2013-08-18 02:24:00,62.0,61.1,30.20,NNW,344,0.0,0.0,97,0.00,,,0.00,Wunderground v.1.15,2013-08-18 06:24:00,
2013-08-18 02:33:00,61.9,61.0,30.20,NNW,344,0.0,0.0,97,0.00,,,0.00,weatherlink.com 1.10,2013-08-18 06:33:00,
2013-08-18 02:48:00,61.9,61.0,30.20,NNW,344,0.0,0.0,97,0.00,,,0.00,weatherlink.com 1.10,2013-08-18 06:48:00,
2013-08-18 03:03:00,61.8,61.0,30.20,NNW,344,0.0,0.0,97,0.00,,,0.00,weatherlink.com 1.10,2013-08-18 07:03:00,
2013-08-18 03:18:00,61.8,61.0,30.20,NNW,344,0.0,0.0,97,0.00,,,0.00,weatherlink.com 1.10,2013-08-18 07:18:00,
2013-08-18 03:33:00,61.7,61.0,30.20,NNW,344,0.0,0.0,97,0.00,,,0.00,weatherlink.com 1.10,2013-08-18 07:33:00,
2013-08-18 03:48:00,61.5,61.0,30.20,NNW,344,0.0,0.0,97,0.01,,,0.01,weatherlink.com 1.10,2013-08-18 07:48:00,
2013-08-18 04:03:00,61.6,61.0,30.20,NNW,344,0.0,0.0,97,0.01,,,0.01,weatherlink.com 1.10,2013-08-18 08:03:00,
2013-08-18 04:18:00,61.5,61.0,30.20,NNW,344,0.0,0.0,97,0.02,,,0.02,weatherlink.com 1.10,2013-08-18 08:18:00,
2013-08-18 04:33:00,61.4,61.0,30.21,NNW,344,0.0,0.0,98,0.03,,,0.03,weatherlink.com 1.10,2013-08-18 08:33:00,
2013-08-18 04:48:00,61.3,61.0,30.20,NNW,344,0.0,0.0,98,0.04,,,0.05,weatherlink.com 1.10,2013-08-18 08:48:00,
2013-08-18 05:03:00,61.3,61.0,30.21,NNW,344,0.0,0.0,98,0.05,,,0.06,weatherlink.com 1.10,2013-08-18 09:03:00,
2013-08-18 05:18:00,61.3,61.0,30.21,NNW,344,0.0,0.0,98,0.06,,,0.08,weatherlink.com 1.10,2013-08-18 09:18:00,
2013-08-18 05:33:00,61.1,61.0,30.21,NNW,344,0.0,0.0,98,0.07,,,0.10,weatherlink.com 1.10,2013-08-18 09:33:00,
2013-08-18 05:48:00,61.0,61.0,30.21,NNW,344,0.0,0.0,98,0.05,,,0.10,weatherlink.com 1.10,2013-08-18 09:48:00,
2013-08-18 06:03:00,60.9,60.0,30.21,NNW,344,0.0,0.0,98,0.04,,,0.10,weatherlink.com 1.10,2013-08-18 10:03:00,
2013-08-18 06:18:00,60.8,60.0,30.21,NNW,344,0.0,0.0,98,0.03,,,0.11,weatherlink.com 1.10,2013-08-18 10:18:00,
2013-08-18 06:33:00,60.6,60.0,30.21,NNW,344,0.0,0.0,98,0.01,,,0.11,weatherlink.com 1.10,2013-08-18 10:33:00,
2013-08-18 06:48:00,60.2,60.0,30.22,NNW,344,0.0,0.0,98,0.01,,,0.11,weatherlink.com 1.10,2013-08-18 10:48:00,
2013-08-18 07:03:00,60.1,60.0,30.22,NNW,344,0.0,0.0,98,0.01,,,0.11,weatherlink.com 1.10,2013-08-18 11:03:00,
2013-08-18 07:18:00,60.0,60.0,30.23,NNW,344,0.0,0.0,98,0.00,,,0.11,weatherlink.com 1.10,2013-08-18 11:18:00,
2013-08-18 07:33:00,60.0,60.0,30.22,NNW,344,0.0,0.0,98,0.01,,,0.12,weatherlink.com 1.10,2013-08-18 11:33:00,
2013-08-18 07:48:00,60.1,60.0,30.23,NNW,344,0.0,0.0,98,0.01,,,0.12,weatherlink.com 1.10,2013-08-18 11:48:00,
2013-08-18 08:00:00,59.9,59.3,30.23,NNW,344,0.0,0.0,98,0.00,,,0.12,Wunderground v.1.15,2013-08-18 12:00:00,
2013-08-18 08:05:00,59.7,59.1,30.23,NNW,344,0.0,0.0,98,0.00,,,0.12,Wunderground v.1.15,2013-08-18 12:05:00,
2013-08-18 08:10:00,59.5,58.6,30.23,NNW,344,0.0,0.0,97,0.00,,,0.13,Wunderground v.1.15,2013-08-18 12:10:00,
2013-08-18 08:16:00,59.6,59.0,30.23,NNW,344,0.0,0.0,98,0.00,,,0.13,Wunderground v.1.15,2013-08-18 12:16:00,
2013-08-18 08:21:00,59.8,59.2,30.24,NNW,344,0.0,0.0,98,0.00,,,0.13,Wunderground v.1.15,2013-08-18 12:21:00,
2013-08-18 08:27:00,59.8,59.2,30.24,NNW,344,0.0,0.0,98,0.00,,,0.13,Wunderground v.1.15,2013-08-18 12:27:00,
2013-08-18 08:32:00,59.8,59.2,30.24,NNW,344,0.0,0.0,98,0.00,,,0.13,Wunderground v.1.15,2013-08-18 12:32:00,
2013-08-18 08:39:00,59.9,59.3,30.24,NNW,344,0.0,0.0,98,0.00,,,0.14,Wunderground v.1.15,2013-08-18 12:39:00,
2013-08-18 08:45:00,59.7,58.8,30.25,NNW,344,0.0,0.0,97,0.00,,,0.14,Wunderground v.1.15,2013-08-18 12:45:00,
2013-08-18 08:51:00,59.6,59.0,30.25,NNW,344,0.0,0.0,98,0.00,,,0.14,Wunderground v.1.15,2013-08-18 12:51:00,
2013-08-18 08:56:00,59.6,59.0,30.25,NNW,344,0.0,0.0,98,0.00,,,0.15,Wunderground v.1.15,2013-08-18 12:56:00,
2013-08-18 09:02:00,59.5,58.9,30.25,NNW,344,0.0,0.0,98,0.11,,,0.16,Wunderground v.1.15,2013-08-18 13:02:00,
2013-08-18 09:08:00,59.5,58.9,30.25,NNW,344,0.0,0.0,98,0.07,,,0.16,Wunderground v.1.15,2013-08-18 13:08:00,
2013-08-18 09:13:00,59.4,58.8,30.25,NNW,344,0.0,0.0,98,0.06,,,0.17,Wunderground v.1.15,2013-08-18 13:13:00,
2013-08-18 09:19:00,59.5,58.9,30.25,NNW,344,0.0,0.0,98,0.06,,,0.17,Wunderground v.1.15,2013-08-18 13:19:00,
2013-08-18 09:25:00,59.6,59.0,30.25,NNW,344,0.0,0.0,98,0.06,,,0.18,Wunderground v.1.15,2013-08-18 13:25:00,
2013-08-18 09:31:00,59.6,59.0,30.25,NNW,344,0.0,0.0,98,0.06,,,0.19,Wunderground v.1.15,2013-08-18 13:31:00,
2013-08-18 09:37:00,59.7,58.8,30.26,NNW,344,0.0,0.0,97,0.06,,,0.19,Wunderground v.1.15,2013-08-18 13:37:00,
2013-08-18 09:44:00,59.7,58.8,30.26,NNW,344,0.0,0.0,97,0.04,,,0.19,Wunderground v.1.15,2013-08-18 13:44:00,
2013-08-18 09:49:00,59.7,58.8,30.26,NNW,344,0.0,0.0,97,0.00,,,0.20,Wunderground v.1.15,2013-08-18 13:49:00,
2013-08-18 09:55:00,59.5,58.6,30.26,NNW,344,0.0,0.0,97,0.00,,,0.20,Wunderground v.1.15,2013-08-18 13:55:00,
2013-08-18 10:00:00,59.6,59.0,30.26,NNW,344,0.0,0.0,98,0.06,,,0.21,Wunderground v.1.15,2013-08-18 14:00:00,
2013-08-18 10:06:00,59.5,58.9,30.25,NNW,344,0.0,0.0,98,0.06,,,0.21,Wunderground v.1.15,2013-08-18 14:06:00,
2013-08-18 10:21:00,59.5,59.0,30.25,NNW,344,0.0,0.0,98,0.05,,,0.23,weatherlink.com 1.10,2013-08-18 14:21:00,
2013-08-18 10:36:00,59.1,58.0,30.25,East,79,0.0,0.0,97,0.04,,,0.23,weatherlink.com 1.10,2013-08-18 14:36:00,
2013-08-18 10:42:00,58.9,57.8,30.25,ENE,74,0.0,0.0,96,0.04,,,0.24,Wunderground v.1.15,2013-08-18 14:42:00,
2013-08-18 10:47:00,58.7,57.9,30.25,ENE,74,0.0,0.0,97,0.04,,,0.24,Wunderground v.1.15,2013-08-18 14:47:00,
2013-08-18 10:53:00,58.6,58.0,30.25,ENE,74,0.0,0.0,97,0.05,,,0.25,weatherlink.com 1.10,2013-08-18 14:53:00,
2013-08-18 10:59:00,58.4,57.6,30.25,ENE,74,0.0,0.0,97,0.05,,,0.25,Wunderground v.1.15,2013-08-18 14:59:00,
2013-08-18 11:05:00,58.4,57.8,30.25,ENE,74,0.0,0.0,98,0.05,,,0.26,Wunderground v.1.15,2013-08-18 15:05:00,
2013-08-18 11:11:00,58.5,57.9,30.25,ENE,74,0.0,0.0,98,0.06,,,0.27,Wunderground v.1.15,2013-08-18 15:11:00,
2013-08-18 11:16:00,58.8,58.0,30.25,ENE,74,0.0,0.0,97,0.06,,,0.27,Wunderground v.1.15,2013-08-18 15:16:00,
2013-08-18 11:22:00,59.0,58.2,30.25,ENE,74,0.0,0.0,97,0.05,,,0.27,Wunderground v.1.15,2013-08-18 15:22:00,
2013-08-18 11:27:00,59.1,58.2,30.25,ENE,74,0.0,0.0,97,0.04,,,0.28,Wunderground v.1.15,2013-08-18 15:27:00,
2013-08-18 11:32:00,59.2,58.3,30.25,ENE,74,0.0,0.0,97,0.04,,,0.28,Wunderground v.1.15,2013-08-18 15:32:00,
2013-08-18 11:37:00,59.4,58.5,30.25,ENE,74,0.0,0.0,97,0.04,,,0.28,Wunderground v.1.15,2013-08-18 15:37:00,
2013-08-18 11:43:00,59.5,58.6,30.25,ENE,74,0.0,0.0,97,0.00,,,0.28,Wunderground v.1.15,2013-08-18 15:43:00,
2013-08-18 11:49:00,59.6,58.7,30.25,ENE,74,0.0,0.0,97,0.00,,,0.28,Wunderground v.1.15,2013-08-18 15:49:00,
2013-08-18 11:54:00,59.8,58.9,30.25,ENE,74,0.0,0.0,97,0.00,,,0.28,Wunderground v.1.15,2013-08-18 15:54:00,
2013-08-18 12:01:00,60.4,59.0,30.25,ENE,74,0.0,0.0,95,0.00,,,0.28,Wunderground v.1.15,2013-08-18 16:01:00,
2013-08-18 12:06:00,60.4,59.0,30.25,ENE,74,0.0,0.0,95,0.00,,,0.28,Wunderground v.1.15,2013-08-18 16:06:00,
2013-08-18 12:12:00,60.6,59.5,30.25,ENE,74,0.0,0.0,96,0.00,,,0.29,Wunderground v.1.15,2013-08-18 16:12:00,
2013-08-18 12:19:00,60.6,59.2,30.25,ENE,74,0.0,0.0,95,0.00,,,0.29,Wunderground v.1.15,2013-08-18 16:19:00,
2013-08-18 12:25:00,60.5,59.4,30.25,ENE,74,0.0,0.0,96,0.00,,,0.29,Wunderground v.1.15,2013-08-18 16:25:00,
2013-08-18 12:30:00,60.2,59.3,30.25,ENE,74,0.0,0.0,97,0.00,,,0.29,Wunderground v.1.15,2013-08-18 16:30:00,
2013-08-18 12:35:00,60.5,59.6,30.25,ENE,74,0.0,0.0,97,0.00,,,0.30,Wunderground v.1.15,2013-08-18 16:35:00,
2013-08-18 12:40:00,60.6,59.7,30.24,ENE,74,0.0,0.0,97,0.00,,,0.30,Wunderground v.1.15,2013-08-18 16:40:00,
2013-08-18 12:46:00,60.5,59.6,30.24,ENE,74,0.0,0.0,97,0.00,,,0.30,Wunderground v.1.15,2013-08-18 16:46:00,
2013-08-18 12:51:00,60.6,59.7,30.24,ENE,74,0.0,0.0,97,0.00,,,0.30,Wunderground v.1.15,2013-08-18 16:51:00,
2013-08-18 12:57:00,60.6,59.7,30.23,East,83,0.0,1.0,97,0.00,,,0.31,Wunderground v.1.15,2013-08-18 16:57:00,
2013-08-18 13:05:00,60.6,59.5,30.24,East,83,0.0,0.0,96,0.00,,,0.31,Wunderground v.1.15,2013-08-18 17:05:00,
2013-08-18 13:10:00,60.7,59.6,30.23,East,83,0.0,0.0,96,0.00,,,0.31,Wunderground v.1.15,2013-08-18 17:10:00,
2013-08-18 13:15:00,60.7,59.6,30.24,East,83,0.0,1.0,96,0.00,,,0.31,Wunderground v.1.15,2013-08-18 17:15:00,
2013-08-18 13:21:00,60.6,59.7,30.24,East,83,0.0,1.0,97,0.00,,,0.31,Wunderground v.1.15,2013-08-18 17:21:00,
2013-08-18 13:26:00,60.4,59.3,30.24,ENE,69,0.0,1.0,96,0.00,,,0.32,Wunderground v.1.15,2013-08-18 17:26:00,
2013-08-18 13:31:00,60.3,59.2,30.24,ENE,69,0.0,1.0,96,0.00,,,0.32,Wunderground v.1.15,2013-08-18 17:31:00,
2013-08-18 13:37:00,60.5,59.6,30.24,ENE,69,0.0,1.0,97,0.00,,,0.32,Wunderground v.1.15,2013-08-18 17:37:00,
2013-08-18 13:42:00,61.0,60.1,30.24,ENE,69,0.0,0.0,97,0.00,,,0.32,Wunderground v.1.15,2013-08-18 17:42:00,
2013-08-18 13:49:00,61.3,60.2,30.24,ENE,69,0.0,1.0,96,0.00,,,0.32,Wunderground v.1.15,2013-08-18 17:49:00,
2013-08-18 13:54:00,61.7,60.5,30.24,ENE,69,0.0,1.0,96,0.00,,,0.32,Wunderground v.1.15,2013-08-18 17:54:00,
2013-08-18 13:59:00,61.8,60.4,30.24,ENE,69,0.0,1.0,95,0.00,,,0.32,Wunderground v.1.15,2013-08-18 17:59:00,
2013-08-18 14:04:00,61.6,60.2,30.23,ENE,69,0.0,0.0,95,0.00,,,0.32,Wunderground v.1.15,2013-08-18 18:04:00,
2013-08-18 14:09:00,61.8,59.1,30.23,ENE,69,0.0,1.0,91,0.00,,,0.32,Wunderground v.1.15,2013-08-18 18:09:00,
2013-08-18 14:14:00,62.6,60.0,30.22,ENE,69,1.0,1.0,90,0.01,,,0.32,weatherlink.com 1.10,2013-08-18 18:14:00,
2013-08-18 14:20:00,62.5,58.6,30.22,SSW,207,0.0,2.0,87,0.00,,,0.32,Wunderground v.1.15,2013-08-18 18:20:00,
2013-08-18 14:25:00,62.6,59.0,30.23,SSW,205,1.0,2.0,88,0.00,,,0.32,Wunderground v.1.15,2013-08-18 18:25:00,
2013-08-18 14:31:00,62.7,58.8,30.22,SSW,206,1.0,1.0,87,0.00,,,0.32,Wunderground v.1.15,2013-08-18 18:31:00,
2013-08-18 14:37:00,62.7,59.4,30.21,SSW,207,1.0,2.0,89,0.00,,,0.32,Wunderground v.1.15,2013-08-18 18:37:00,
2013-08-18 14:43:00,62.9,59.3,30.22,SSW,207,1.0,1.0,88,0.00,,,0.32,Wunderground v.1.15,2013-08-18 18:43:00,
2013-08-18 14:48:00,63.2,57.6,30.21,SSW,207,0.0,1.0,82,0.00,,,0.32,Wunderground v.1.15,2013-08-18 18:48:00,
2013-08-18 14:54:00,63.0,58.4,30.21,SSW,205,0.0,1.0,85,0.00,,,0.32,Wunderground v.1.15,2013-08-18 18:54:00,
2013-08-18 15:00:00,63.6,60.3,30.21,SSW,205,1.0,1.0,89,0.00,,,0.32,Wunderground v.1.15,2013-08-18 19:00:00,
2013-08-18 15:06:00,63.1,59.8,30.21,SSW,205,0.0,1.0,89,0.00,,,0.32,Wunderground v.1.15,2013-08-18 19:06:00,
2013-08-18 15:12:00,63.2,59.6,30.21,SSW,205,0.0,0.0,88,0.00,,,0.32,Wunderground v.1.15,2013-08-18 19:12:00,
2013-08-18 15:17:00,63.7,60.1,30.21,SSW,205,0.0,1.0,88,0.00,,,0.32,Wunderground v.1.15,2013-08-18 19:17:00,
2013-08-18 15:22:00,63.7,59.8,30.21,SSW,205,0.0,1.0,87,0.00,,,0.32,Wunderground v.1.15,2013-08-18 19:22:00,
2013-08-18 15:27:00,63.9,60.3,30.21,SSW,205,1.0,1.0,88,0.00,,,0.32,Wunderground v.1.15,2013-08-18 19:27:00,
2013-08-18 15:32:00,64.1,59.2,30.20,SSW,205,1.0,1.0,84,0.00,,,0.32,Wunderground v.1.15,2013-08-18 19:32:00,
2013-08-18 15:37:00,64.9,60.3,30.20,SSW,204,0.0,1.0,85,0.00,,,0.32,Wunderground v.1.15,2013-08-18 19:37:00,
2013-08-18 15:42:00,64.4,59.1,30.20,SSW,204,0.0,1.0,83,0.00,,,0.32,Wunderground v.1.15,2013-08-18 19:42:00,
2013-08-18 15:48:00,65.1,59.5,30.20,SSW,207,0.0,1.0,82,0.00,,,0.32,Wunderground v.1.15,2013-08-18 19:48:00,
2013-08-18 15:54:00,66.0,60.3,30.20,East,100,1.0,2.0,82,0.00,,,0.32,Wunderground v.1.15,2013-08-18 19:54:00,
2013-08-18 16:00:00,65.7,59.4,30.19,SSE,159,1.0,1.0,80,0.00,,,0.32,Wunderground v.1.15,2013-08-18 20:00:00,
2013-08-18 16:06:00,65.4,60.1,30.19,South,175,1.0,2.0,83,0.00,,,0.32,Wunderground v.1.15,2013-08-18 20:06:00,
2013-08-18 16:11:00,65.5,59.5,30.19,SW,219,2.0,2.0,81,0.00,,,0.32,Wunderground v.1.15,2013-08-18 20:11:00,
2013-08-18 16:16:00,65.4,60.4,30.19,South,185,1.0,2.0,84,0.00,,,0.32,Wunderground v.1.15,2013-08-18 20:16:00,
2013-08-18 16:22:00,65.8,59.8,30.18,South,185,1.0,1.0,81,0.00,,,0.32,Wunderground v.1.15,2013-08-18 20:22:00,
2013-08-18 16:28:00,65.7,59.7,30.18,South,185,0.0,1.0,81,0.00,,,0.32,Wunderground v.1.15,2013-08-18 20:28:00,
2013-08-18 16:34:00,66.5,61.8,30.18,South,185,0.0,1.0,85,0.00,,,0.32,Wunderground v.1.15,2013-08-18 20:34:00,
2013-08-18 16:40:00,66.7,61.7,30.18,SE,126,1.0,1.0,84,0.00,,,0.32,Wunderground v.1.15,2013-08-18 20:40:00,
2013-08-18 16:45:00,66.2,60.5,30.18,SE,144,1.0,2.0,82,0.00,,,0.32,Wunderground v.1.15,2013-08-18 20:45:00,
2013-08-18 16:51:00,66.1,61.1,30.18,SE,144,1.0,1.0,84,0.00,,,0.32,Wunderground v.1.15,2013-08-18 20:51:00,
2013-08-18 16:56:00,65.9,59.9,30.18,SE,144,1.0,2.0,81,0.00,,,0.32,Wunderground v.1.15,2013-08-18 20:56:00,
2013-08-18 17:01:00,65.8,60.2,30.18,SE,144,1.0,1.0,82,0.00,,,0.32,Wunderground v.1.15,2013-08-18 21:01:00,
2013-08-18 17:07:00,65.6,60.6,30.18,SE,144,0.0,1.0,84,0.00,,,0.32,Wunderground v.1.15,2013-08-18 21:07:00,
2013-08-18 17:14:00,65.6,61.6,30.18,SE,144,0.0,0.0,87,0.00,,,0.32,Wunderground v.1.15,2013-08-18 21:14:00,
2013-08-18 17:19:00,66.0,62.3,30.18,SE,144,0.0,1.0,88,0.00,,,0.32,Wunderground v.1.15,2013-08-18 21:19:00,
2013-08-18 17:24:00,66.0,61.7,30.18,NE,55,0.0,0.0,86,0.00,,,0.32,Wunderground v.1.15,2013-08-18 21:24:00,
2013-08-18 17:30:00,66.3,62.3,30.18,NE,55,0.0,0.0,87,0.00,,,0.32,Wunderground v.1.15,2013-08-18 21:30:00,
2013-08-18 17:36:00,65.8,62.1,30.18,NE,55,0.0,0.0,88,0.00,,,0.32,Wunderground v.1.15,2013-08-18 21:36:00,
2013-08-18 17:41:00,65.2,61.2,30.18,NE,55,0.0,0.0,87,0.00,,,0.32,Wunderground v.1.15,2013-08-18 21:41:00,
2013-08-18 17:46:00,65.5,61.9,30.18,NE,55,0.0,0.0,88,0.00,,,0.32,Wunderground v.1.15,2013-08-18 21:46:00,
2013-08-18 17:52:00,65.7,62.0,30.18,NE,55,0.0,0.0,88,0.00,,,0.32,Wunderground v.1.15,2013-08-18 21:52:00,
2013-08-18 17:57:00,66.0,62.7,30.18,NE,55,0.0,0.0,89,0.00,,,0.32,Wunderground v.1.15,2013-08-18 21:57:00,
2013-08-18 18:04:00,65.9,62.9,30.18,NE,55,0.0,0.0,90,0.00,,,0.32,Wunderground v.1.15,2013-08-18 22:04:00,
2013-08-18 18:09:00,65.6,61.9,30.18,South,189,0.0,1.0,88,0.00,,,0.32,Wunderground v.1.15,2013-08-18 22:09:00,
2013-08-18 18:14:00,65.7,61.7,30.17,SSW,209,0.0,1.0,87,0.00,,,0.32,Wunderground v.1.15,2013-08-18 22:14:00,
2013-08-18 18:19:00,65.5,61.2,30.18,SSW,209,0.0,1.0,86,0.00,,,0.32,Wunderground v.1.15,2013-08-18 22:19:00,
2013-08-18 18:24:00,65.5,61.5,30.18,SSW,209,0.0,0.0,87,0.00,,,0.32,Wunderground v.1.15,2013-08-18 22:24:00,
2013-08-18 18:30:00,65.6,62.3,30.18,SSW,209,0.0,0.0,89,0.00,,,0.32,Wunderground v.1.15,2013-08-18 22:30:00,
2013-08-18 18:35:00,65.2,62.2,30.18,SSW,209,0.0,0.0,90,0.00,,,0.32,Wunderground v.1.15,2013-08-18 22:35:00,
2013-08-18 18:40:00,65.4,62.1,30.17,SSW,209,0.0,0.0,89,0.00,,,0.32,Wunderground v.1.15,2013-08-18 22:40:00,
2013-08-18 18:46:00,65.3,62.0,30.17,SSW,209,0.0,0.0,89,0.00,,,0.32,Wunderground v.1.15,2013-08-18 22:46:00,
2013-08-18 18:52:00,65.1,62.1,30.17,SSW,209,0.0,0.0,90,0.00,,,0.32,Wunderground v.1.15,2013-08-18 22:52:00,
2013-08-18 18:57:00,64.9,62.2,30.17,SSW,209,0.0,0.0,91,0.00,,,0.32,Wunderground v.1.15,2013-08-18 22:57:00,
2013-08-18 19:02:00,65.0,62.3,30.17,SSW,209,0.0,0.0,91,0.00,,,0.32,Wunderground v.1.15,2013-08-18 23:02:00,
2013-08-18 19:08:00,64.7,62.0,30.17,SSW,209,0.0,1.0,91,0.00,,,0.32,Wunderground v.1.15,2013-08-18 23:08:00,
2013-08-18 19:14:00,64.4,62.0,30.17,SSW,209,0.0,1.0,92,0.00,,,0.32,Wunderground v.1.15,2013-08-18 23:14:00,
2013-08-18 19:19:00,64.4,62.3,30.17,SSW,209,0.0,1.0,93,0.00,,,0.32,Wunderground v.1.15,2013-08-18 23:19:00,
2013-08-18 19:25:00,64.1,62.0,30.17,SSW,209,0.0,0.0,93,0.00,,,0.32,Wunderground v.1.15,2013-08-18 23:25:00,
2013-08-18 19:30:00,64.1,62.3,30.17,SSW,209,0.0,0.0,94,0.00,,,0.32,Wunderground v.1.15,2013-08-18 23:30:00,
2013-08-18 19:36:00,64.0,62.2,30.17,SSW,209,0.0,0.0,94,0.00,,,0.32,Wunderground v.1.15,2013-08-18 23:36:00,
2013-08-18 19:41:00,64.1,62.3,30.17,SSW,209,0.0,0.0,94,0.00,,,0.32,Wunderground v.1.15,2013-08-18 23:41:00,
2013-08-18 19:47:00,64.0,62.2,30.17,SSW,209,0.0,0.0,94,0.00,,,0.32,Wunderground v.1.15,2013-08-18 23:47:00,
2013-08-18 19:53:00,63.9,61.5,30.17,SSW,209,0.0,0.0,92,0.00,,,0.32,Wunderground v.1.15,2013-08-18 23:53:00,
2013-08-18 19:59:00,63.8,62.0,30.17,SSW,209,0.0,0.0,94,0.00,,,0.32,Wunderground v.1.15,2013-08-18 23:59:00,
2013-08-18 20:04:00,63.5,61.7,30.17,SSW,209,0.0,0.0,94,0.00,,,0.32,Wunderground v.1.15,2013-08-19 00:04:00,
2013-08-18 20:09:00,63.5,62.0,30.17,SSW,209,0.0,0.0,95,0.00,,,0.32,Wunderground v.1.15,2013-08-19 00:09:00,
2013-08-18 20:15:00,63.3,61.5,30.17,SSW,209,0.0,0.0,94,0.00,,,0.32,Wunderground v.1.15,2013-08-19 00:15:00,
2013-08-18 20:21:00,63.3,61.8,30.17,SSW,209,0.0,1.0,95,0.00,,,0.32,Wunderground v.1.15,2013-08-19 00:21:00,
2013-08-18 20:27:00,63.2,61.1,30.17,SSW,209,0.0,1.0,93,0.00,,,0.32,Wunderground v.1.15,2013-08-19 00:27:00,
2013-08-18 20:34:00,63.2,61.4,30.17,SSW,209,0.0,0.0,94,0.00,,,0.32,Wunderground v.1.15,2013-08-19 00:34:00,
2013-08-18 20:39:00,63.0,61.5,30.17,SSW,209,0.0,0.0,95,0.00,,,0.32,Wunderground v.1.15,2013-08-19 00:39:00,
2013-08-18 20:45:00,63.0,61.5,30.17,SSW,209,0.0,0.0,95,0.00,,,0.32,Wunderground v.1.15,2013-08-19 00:45:00,
2013-08-18 20:50:00,62.9,61.7,30.17,SSW,209,0.0,0.0,96,0.00,,,0.32,Wunderground v.1.15,2013-08-19 00:50:00,
2013-08-18 20:56:00,62.9,61.7,30.17,SSW,209,0.0,0.0,96,0.00,,,0.32,Wunderground v.1.15,2013-08-19 00:56:00,
2013-08-18 21:02:00,62.9,61.4,30.17,SSW,209,0.0,0.0,95,0.00,,,0.32,Wunderground v.1.15,2013-08-19 01:02:00,
2013-08-18 21:07:00,63.0,61.5,30.17,SSW,209,0.0,0.0,95,0.00,,,0.32,Wunderground v.1.15,2013-08-19 01:07:00,
2013-08-18 21:12:00,62.9,61.7,30.17,SSW,209,0.0,0.0,96,0.00,,,0.32,Wunderground v.1.15,2013-08-19 01:12:00,
2013-08-18 21:18:00,62.7,61.5,30.17,SSW,209,0.0,0.0,96,0.00,,,0.32,Wunderground v.1.15,2013-08-19 01:18:00,
2013-08-18 21:23:00,62.6,61.4,30.18,SSW,209,0.0,0.0,96,0.00,,,0.32,Wunderground v.1.15,2013-08-19 01:23:00,
2013-08-18 21:29:00,62.6,61.7,30.18,SSW,209,0.0,0.0,97,0.00,,,0.32,Wunderground v.1.15,2013-08-19 01:29:00,
2013-08-18 21:34:00,62.3,61.1,30.17,SSW,209,0.0,0.0,96,0.00,,,0.32,Wunderground v.1.15,2013-08-19 01:34:00,
2013-08-18 21:39:00,62.1,60.9,30.17,SSW,209,0.0,0.0,96,0.00,,,0.32,Wunderground v.1.15,2013-08-19 01:39:00,
2013-08-18 21:44:00,61.9,61.0,30.17,SSW,209,0.0,0.0,97,0.00,,,0.32,Wunderground v.1.15,2013-08-19 01:44:00,
2013-08-18 21:50:00,61.8,60.9,30.17,SSW,209,0.0,0.0,97,0.00,,,0.32,Wunderground v.1.15,2013-08-19 01:50:00,
2013-08-18 21:55:00,61.7,60.8,30.17,SSW,209,0.0,0.0,97,0.00,,,0.32,Wunderground v.1.15,2013-08-19 01:55:00,
2013-08-18 22:01:00,61.7,60.8,30.18,SSW,209,0.0,0.0,97,0.00,,,0.32,Wunderground v.1.15,2013-08-19 02:01:00,
2013-08-18 22:07:00,61.5,60.6,30.18,SSW,209,0.0,0.0,97,0.00,,,0.32,Wunderground v.1.15,2013-08-19 02:07:00,
2013-08-18 22:12:00,61.3,60.4,30.18,SSW,209,0.0,0.0,97,0.00,,,0.32,Wunderground v.1.15,2013-08-19 02:12:00,
2013-08-18 22:19:00,61.3,60.7,30.18,SSW,209,0.0,0.0,98,0.00,,,0.32,Wunderground v.1.15,2013-08-19 02:19:00,
2013-08-18 22:25:00,61.2,60.3,30.18,SSW,209,0.0,0.0,97,0.00,,,0.32,Wunderground v.1.15,2013-08-19 02:25:00,
2013-08-18 22:31:00,61.1,60.2,30.18,SSW,209,0.0,0.0,97,0.00,,,0.32,Wunderground v.1.15,2013-08-19 02:31:00,
2013-08-18 22:36:00,61.0,60.1,30.17,SSW,209,0.0,0.0,97,0.00,,,0.32,Wunderground v.1.15,2013-08-19 02:36:00,
2013-08-18 22:41:00,61.0,60.1,30.17,SSW,209,0.0,0.0,97,0.00,,,0.32,Wunderground v.1.15,2013-08-19 02:41:00,
2013-08-18 22:47:00,61.0,60.4,30.17,SSW,209,0.0,1.0,98,0.00,,,0.32,Wunderground v.1.15,2013-08-19 02:47:00,
2013-08-18 22:52:00,60.9,60.3,30.17,SSW,209,0.0,0.0,98,0.00,,,0.32,Wunderground v.1.15,2013-08-19 02:52:00,
2013-08-18 22:59:00,61.0,60.4,30.17,SSW,209,0.0,0.0,98,0.00,,,0.32,Wunderground v.1.15,2013-08-19 02:59:00,
2013-08-18 23:05:00,60.9,60.3,30.17,SSW,209,0.0,0.0,98,0.00,,,0.32,Wunderground v.1.15,2013-08-19 03:05:00,
2013-08-18 23:11:00,61.0,61.0,30.17,SSW,209,0.0,0.0,98,0.00,,,0.32,weatherlink.com 1.10,2013-08-19 03:11:00,
2013-08-18 23:17:00,60.9,60.0,30.17,SSW,209,0.0,0.0,97,0.00,,,0.32,Wunderground v.1.15,2013-08-19 03:17:00,
2013-08-18 23:24:00,60.8,60.2,30.17,SSW,209,0.0,0.0,98,0.00,,,0.32,Wunderground v.1.15,2013-08-19 03:24:00,
2013-08-18 23:29:00,60.8,60.2,30.17,SSW,209,0.0,1.0,98,0.00,,,0.32,Wunderground v.1.15,2013-08-19 03:29:00,
2013-08-18 23:35:00,60.7,60.1,30.17,SSW,209,0.0,0.0,98,0.00,,,0.32,Wunderground v.1.15,2013-08-19 03:35:00,
2013-08-18 23:41:00,60.6,60.0,30.17,SSW,209,0.0,0.0,98,0.00,,,0.32,Wunderground v.1.15,2013-08-19 03:41:00,
2013-08-18 23:46:00,60.5,59.9,30.17,SSW,209,0.0,0.0,98,0.00,,,0.32,Wunderground v.1.15,2013-08-19 03:46:00,
2013-08-18 23:51:00,60.5,59.9,30.17,SSW,209,0.0,0.0,98,0.00,,,0.32,Wunderground v.1.15,2013-08-19 03:51:00,
2013-08-18 23:56:00,60.5,59.9,30.17,SSW,209,0.0,0.0,98,0.00,,,0.32,Wunderground v.1.15,2013-08-19 03:56:00,